www.pogodaiklimat.ru

Погода и климат >> Архив погоды >> Россия >> Красноярский край >> Тюхтет


ПОГОДА в Тюхтете

  • Прогноз погоды в Тюхтете
  • Монитор погоды в Тюхтете

АРХИВ ПОГОДЫ в Тюхтете

Время (UTC), дата Ветер
(напр.,м/с)
 
Видим.   Явления Облачность Т
(С)
Тd
(С)
f
(%)
Тe
(С)
Тes
(С)
Комфортность P
(гПа)
Po
(гПа)
Тmin
(С)
Tmax
(С)
R
(мм)
R24
(мм)
S
(см)
21 17.05 Ю 2 н/о 8/6 600 м
[Sc Ci fib]
+2.4 -7.0 50 -0 -0 1021.6 996.0
00 18.05 Ю 2 50 км 9/6 600 м
[Sc Ci fib]
+4.1 -2.8 61 +2 +2 1021.5 996.1 +2.2
03 18.05 Ю 3 50 км 9/0
[Cc]
+10.4 -3.0 39 +9 +15 1020.0 995.2
06 18.05 ЮЗ 4 50 км 9/6 600 м
[Sc Cc]
+11.8 -4.2 32 +10 +14 1018.4 993.7
09 18.05 Ю 2 50 км 9/6 600 м
[Sc Cc]
+12.1 -4.4 31 +12 +15 1016.8 992.2
12 18.05 Ю 3 50 км 9/6 600 м
[Sc Cc]
+13.0 -4.2 30 +12 +13 1014.7 990.2 +13.6
15 18.05 ЮВ 1 н/о 8/4 600 м
[Sc diur, vesp Cc]
+11.2 -4.5 33 +12 +12 1013.9 989.3
18 18.05 В 2 н/о 8/3 600 м
[Sc diur, vesp Cc]
+8.4 -4.5 40 +7 +7 1012.7 987.9
21 18.05 ЮВ 2 н/о 8/3 600 м
[Sc diur, vesp Cc]
+6.9 -4.8 43 +5 +5 1011.5 986.5
00 19.05 ЮВ 3 50 км 9/4 600 м
[Sc diur, vesp Cc]
+8.8 -5.1 37 +7 +8 1010.5 985.7 +6.9
03 19.05 ЮВ 4 50 км 9/0
[Ci fib]
+17.0 -5.4 21 +17 +22 1007.0 983.1
06 19.05 Ю 4-10
{10}
50 км 9/6 600 м
[Sc Ci sp]
+22.6 -5.3 15 +21 +24 комфорт 1003.8 980.4
09 19.05 ЮЗ 5-12
{13}
50 км 9/6 600 м
[Sc Ci sp]
+25.6 -4.7 13 +23 +25 комфорт 1001.5 978.4
12 19.05 ЮЗ 4
{14}
50 км 9/6 600 м
[Sc Ci fib]
+23.7 -4.1 15 +22 +22 комфорт 1001.7 978.4 +25.8
15 19.05 ЮЗ 3
{13}
н/о 9/6 600 м
[Sc Ci fib]
+21.1 +0.3 25 +21 +21 комфорт 1002.4 978.9
18 19.05 СЗ 2
{10}
н/о 6/0
[Ci fib]
+13.4 +6.9 65 +13 +13 1005.1 981.0
21 19.05 СЗ 3 н/о 6/0
[Ci fib]
+11.3 +7.5 77 +10 +10 1006.3 982.0
00 20.05 СЗ 1 50 км 6/0
[Ci fib]
+10.7 +7.5 81 +10 +12 1007.5 983.0 +9.2
03 20.05 ЮЗ 1 50 км 6/0
[Ci fib]
+16.0 +7.1 55 +17 +27 1005.8 981.8
06 20.05 ЮЗ 3 50 км 8/8 600 м
[Sc diur, vesp]
+19.6 +4.3 36 +20 +23 1003.8 980.1
09 20.05 ЮЗ 4
{11}
50 км 8/8 600 м
[Sc diur, vesp]
+21.3 -0.0 24 +21 +22 комфорт 1002.4 978.9
12 20.05 ЮЗ 5 50 км 9/6 600 м
[Sc Ci fib]
+20.3 +1.1 28 +20 +21 1002.7 979.2 +22.3
15 20.05 ЮЗ 1
{12}
н/о 8/4 600 м
[Sc diur, vesp Ci fib]
+17.1 +1.5 35 +18 +18 1002.5 978.7
18 20.05 СЗ 1 н/о 8/4 600 м
[Sc diur, vesp Ci fib]
+13.6 -2.3 33 +14 +14 1002.3 978.2
21 20.05 Ю 1 н/о в посл. час ливневой дождь 9/8 600 м
[Cb cap Ci fib]
+9.1 +8.5 96 +8 +8 1002.1 977.6
00 21.05 ЮВ 1 50 км {ливн. осадки} 9/8 600 м
[Cb cap Ci fib]
+9.1 +8.8 98 +8 +9 999.2 974.8 +9.0 2
03 21.05 З 1 10 км слаб. ливневой дождь 10/10 600 м
[Cb cap]
+9.5 +9.0 97 +9 +9 997.8 973.5
06 21.05 З 3 10 км слаб. ливневой дождь 10/10 600 м
[Cb cap]
+9.5 +7.8 89 +7 +7 999.6 975.2
09 21.05 З 3 50 км {ливн. осадки} 9/8 600 м
[Cb cap Ci fib]
+11.5 +6.9 73 +10 +11 1001.1 976.9
12 21.05 ЮЗ 3 50 км {ливн. осадки} 8/6 600 м
[Cb cap Ci fib]
+13.0 +3.6 53 +12 +13 1001.1 976.9 +13.1 3
15 21.05 Ю 1 20 км 6/0
[Ci fib]
+9.3 +3.4 67 +9 +9 1001.8 977.4
18 21.05 Ю 1 н/о {ливн. осадки} н/о +8.1 +4.0 75 +7 +7 1001.1 976.6
21 21.05 ЮЗ 3 н/о {ливн. осадки} 8/8 600 м
[Cb cap]
+7.1 +5.4 89 +4 +4 1001.5 976.9
00 22.05 ЮЗ 5-10
{12}
50 км {ливн. осадки} 9/8 600 м
[Cb cap Ci fib]
+6.7 +3.6 81 +3 +3 1001.9 977.2 +6.1 5
03 22.05 ЮЗ 4-10
{11}
50 км 9/8 600 м
[Cb cap Ci fib]
+6.6 +5.3 91 +3 +4 1005.5 980.8
06 22.05 ЮЗ 3
{10}
50 км 9/8 600 м
[Cb cap Ci fib]
+10.5 +4.9 68 +9 +11 1005.4 981.0
09 22.05 З 3
{10}
20 км слаб. ливневой дождь 10/10 600 м
[Cb cap]
+12.1 +3.8 57 +11 +11 1004.7 980.5
12 22.05 Ю 2
{10}
50 км в посл. час ливневой дождь 9/8 600 м
[Cb cap Ci fib]
+6.7 +6.1 96 +4 +5 1005.8 981.1 +13.6 1
15 22.05 Ю 1 20 км 8/3 600 м
[Cb cap Ci fib]
+5.8 +5.5 98 +4 +4 1004.7 979.9
18 22.05 Ю 1 н/о 4/3 600 м
[Cb cap Ci fib]
+3.4 +3.3 99 +2 +2 1004.6 979.6
21 22.05 Ю 2 н/о 3/0
[Ci fib]
+2.2 +2.1 99 -1 -1 1006.2 981.1
00 23.05 ЮЗ 2 50 км {ливн. осадки} 9/8 600 м
[Cb cap Ci fib]
+4.9 +4.1 95 +2 +2 1007.7 982.7 +1.8 0.0
03 23.05 З 3 50 км 9/8 600 м
[Sc diur, vesp Ci fib]
+9.0 +5.6 79 +7 +8 1008.8 984.2
06 23.05 С 5-10
{10}
50 км 9/8 600 м
[Cb cap Ci fib]
+9.2 +3.6 68 +6 +7 1009.1 984.5
09 23.05 ЮЗ 3
{10}
50 км {ливн. осадки} 9/8 600 м
[Cb cap Ci fib]
+10.8 +4.7 66 +9 +11 1009.8 985.3
12 23.05 ЮЗ 2 20 км слаб. ливневой дождь 8/8 600 м
[Cb cap]
+10.5 +4.8 68 +9 +10 1010.9 986.3 +12.3 0.4
15 23.05 Ю 1 20 км {ливн. осадки} 8/8 600 м
[Cb cap]
+7.7 +4.0 77 +7 +7 1013.2 988.3
18 23.05 Ю 2 н/о {ливн. осадки} 8/6 600 м
[Cb cap Ci fib]
+5.0 +3.9 93 +2 +2 1014.8 989.7
21 23.05 Ю 1 н/о 9/6 600 м
[Cb cap Ci fib]
+3.8 +3.2 96 +2 +2 1016.0 990.7
00 24.05 З 1 50 км 9/8 600 м
[Cb cap Ci fib]
+6.0 +4.4 89 +5 +5 1017.2 992.1 +3.8 0.0
03 24.05 ЮЗ 3 50 км 9/0
[Ac trans Ci fib]
+11.5 +3.8 59 +10 +15 1017.2 992.6
06 24.05 ЮЗ 4
{10}
50 км 9/8 600 м
[Cb cap Ci fib]
+13.3 +1.8 46 +12 +14 1016.3 991.8
09 24.05 ЮЗ 2
{10}
50 км в посл. час ливневой дождь 9/8 600 м
[Cb cap Ci fib]
+12.5 +4.0 56 +12 +14 1016.2 991.7
12 24.05 ЮЗ 4 50 км {ливн. осадки} 8/0
[Ci fib]
+13.2 +0.3 41 +12 +13 1015.7 991.3 +14.4 0.0
15 24.05 Ю 2 20 км 9/3 600 м
[Sc diur, vesp Ac trans Ci fib]
+9.6 +3.4 65 +8 +8 1016.8 992.0
18 24.05 Ю 2 н/о 8/0
[Ci fib]
+7.1 +3.1 76 +5 +5 1017.2 992.2

 

Местоположение метеостанции Тюхтет (Красноярский край, Россия): широта 56.53 долгота 89.32 высота над уровнем моря 205 м.

В архиве по умолчанию представлена погода в Тюхтете за последнюю неделю. Архивные данные за месяц целиком и за предыдущие месяцы, начиная с января 2011 года, Вы можете получить, выбрав интересующий диапазон дат из раскрывающегося списка и нажав кнопку "Ввод!".


*Определитесь, кто Вы:
робот инопланетянин человек

Внимание! Время в таблицах - всемирное. Для получения местного времени необходимо прибавить поправку, которая равна 7 ч.

Смотрите также архив погоды в соседних городах и на ближайших метеорологических станциях:

Погода в Боготоле (Красноярский край, Россия) (37 км)
Погода в Тяжине (Кемеровская область, Россия) (67 км)
Погода в Большом Улуе (Красноярский край, Россия) (77 км)
Погода в Ачинске (Красноярский край, Россия) (79 км)
Погода в Назарово (Красноярский край, Россия) (83 км)
Погода в Новобирилюссах (Красноярский край, Россия) (95 км)
Погода в Тисуле (Кемеровская область, Россия) (107 км)
Погода в Мариинске (Кемеровская область, Россия) (108 км)
Погода в Тегульдете (Томская область, Россия) (111 км)
Погода в Шарыпово (Красноярский край, Россия) (111 км)

Пояснения к столбцам:

Ветер - указаны скорость ветра в м/с - средняя за 10 мин, порывы в срок и между сроками (в фигурных скобках) и направление, откуда дует ветер: С - северный, СВ - северо-восточный, В - восточный, ЮВ - юго-восточный, Ю - южный, ЮЗ - юго-западный, З - западный, СЗ - северо-западный.
Видимость - горизонтальная дальность видимости в метрах или километрах. При видимости от 1 до 10 км при отсутствии осадков обычно наблюдается дымка, при ухудшении видимости до 1 км и менее - туман. В сухую погоду видимость может ухудшаться дымом, пылью или мглою.
Явления - указаны атмосферные явления, наблюдавшиеся в срок или в последний час перед сроком; фигурными скобками обозначены явления, наблюдавшиеся между сроками (за 1-3 часа до срока); квадратными скобками обозначены град или гололедные отложения с указанием их диаметра в мм.
Облачность - указаны через наклонную черту общая и нижняя облачность в баллах и высота нижней границы облаков в метрах; квадратными скобками обозначены формы облаков: Ci - перистые, Cs - перисто-слоистые, Cc - перисто-кучевые, Ac - высококучевые, As - высокослоистые, Sc - слоисто-кучевые, Ns - слоисто-дождевые, Cu - кучевые, Cb - кучево-дождевые. Подробнее классификацию облаков см. в Атласе облаков (PDF).
T - Температура воздуха - температура, измеренная на высоте 2 м над землей.
Td - Температура точки росы - температура, при понижении до которой содержащийся в воздухе водяной пар достигнет насыщения.
f - Относительная влажность воздуха - влажноcть воздуха, измеренная на высоте 2 м над землей.
Te - Эффективная температура - температура, которую ощущает одетый по сезону человек в тени. Характеристика душности погоды. При расчете учитывается влияние влажности воздуха и скорости ветра на теплоощущения человека.
Tes - Эффективная температура на солнце - температура, которую ощущает человек, с поправкой на солнечный нагрев. Характеристика знойности погоды. Зависит от высоты солнца над горизонтом, облачности и скорости ветра. Ночью, в пасмурную погоду, а также при ветре 12 м/с и более поправка равна нулю.
P - Атмосферное давление - приведенное к уровню моря атмосферное давление.
Po - Атмосферное давление - измеренное на уровне метеостанции атмосферное давление.
Tmin - Минимальная температура - минимум температуры воздуха на высоте 2 м над землей.
Tmax - Максимальная температура - максимум температуры воздуха на высоте 2 м над землей.
R - Количество осадков - Количество выпавших осадков за период времени, мм. При наведении курсора мыши на число - период времени, за который выпало указанное количество осадков.
R24 - Количество осадков - Количество выпавших осадков за 24 часа, мм.
S - Снежный покров - Высота снежного покрова, см. При наведении курсора мыши на число - состояние снежного покрова и степень покрытия местности в баллах.